Regional Weather Roundup
Issued by NWS

Home | Current Version | Previous Version | Graphics & Text | Print | Product List | Glossary On
Versions: 1 2 3 4 5 6 7 8 9 10 11 12 13 14 15 16 17 18 19 20 21 22 23 24 25 26 27 28 29 30 31 32 33 34 35 36 37 38 39 40 41 42 43 44 45 46 47 48 49 50
000
ASUS43 KDMX 270704
RWRIA

WEATHER ROUNDUP FOR IOWA
NATIONAL WEATHER SERVICE DES MOINES IA
  ISSUED BY NWS QUAD CITIES IA IL
100 AM CST FRI FEB 27 2015

NOTE: "FAIR" INDICATES FEW OR NO CLOUDS BELOW 12,000 FEET WITH NO
SIGNIFICANT WEATHER AND/OR OBSTRUCTIONS TO VISIBILITY.

* - THESE STATIONS ARE NOT NWS STATIONS...THUS NOT UNDER NWS
QUALITY CONTROL.  THEY ALSO DO NOT REPORT WEATHER SUCH
AS PRECIPITATION OR FOG.

IAZ001>003-012>014-020>022-031>034-043>046-270800-
   NORTHWEST IOWA

CITY           SKY/WX    TMP DP  RH WIND       PRES   REMARKS
CARROLL *      CLEAR     -9 -17  70 W7        30.55R WCI -24
CHEROKEE *     SUNNY    -13 -17  81 S3        30.55F
DENNISON *     CLEAR    -13 -20  70 CALM      30.54S
LE MARS *      FAIR      -6  -9  84 CALM      30.57S
ORANGE CITY *  CLEAR     -8 -13  77 CALM      30.52S
SHELDON *      CLEAR    -13 -18  77 NW5       30.51S WCI -25
SIOUX CITY     CLEAR     -2  -7  79 NW6       30.58F WCI -14
SPENCER        CLEAR    -12 -19  71 W6        30.52S WCI -26
STORM LAKE *   CLEAR    -11 -17  77 NW10      30.52S WCI -30
$$

IAZ055>058-069>071-079>083-090>094-270800-
   SOUTHWEST IOWA

CITY           SKY/WX    TMP DP  RH WIND       PRES   REMARKS
ATLANTIC *     CLEAR     -6 -11  77 CALM      30.57R
AUDUBON *      CLEAR     -6 -11  77 NW3       30.54S
CLARINDA *     CLEAR     -2  -6  84 CALM      30.61S
COUNCIL BLFS * PTCLDY     1  -4  78 NW5       30.56S WCI  -8
CRESTON *      PTCLDY    -6 -11  77 NW7       30.54S WCI -20
HARLAN *       CLEAR     -8 -11  84 CALM      30.59S
LAMONI         CLEAR     -2  -7  79 NW5       30.55R WCI -12
RED OAK *      PTCLDY    -2  -6  84 CALM      30.59S
SHENANDOAH *   CLEAR     -4  -8  84 CALM      30.61S
$$

IAZ047>049-059>061-072>074-084-270800-
   CENTRAL IOWA

CITY           SKY/WX    TMP DP  RH WIND       PRES   REMARKS
AMES           CLEAR     -5 -11  75 NW6       30.55S WCI -18
ANKENY *       CLEAR     -2  -9  71 NW6       30.57S WCI -14
BOONE *        CLEAR     -6 -11  77 W7        30.52S WCI -20
CHARITON *     PTCLDY    -4  -9  77 W7        30.55R WCI -18
DES MOINES     CLEAR     -2  -8  76 NW6       30.56S WCI -14
GRINNELL *     SUNNY    -10 -15  80 NW5       30.53S WCI -22
KNOXVILLE *    CLEAR     -6 -13  71 W5        30.54S WCI -17
MARSHALLTOWN   CLEAR    -13 -16  86 NW6       30.52S WCI -27
NEWTON *       CLEAR     -8 -13  77 W7        30.54S WCI -22
PELLA *        CLEAR     -5  -8  89 NW5       30.56S WCI -16
PERRY *          N/A     -6 -10  85 NW5       30.56S WCI -17
$$

IAZ004>006-015-016-023>025-035-036-270800-
   NORTH CENTRAL IOWA

CITY           SKY/WX    TMP DP  RH WIND       PRES   REMARKS
ALGONA *       CLEAR     -9 -13  84 W9        30.51S WCI -27
CLARION *      PTCLDY   -13 -20  70 CALM      30.52R
ESTHERVILLE    CLEAR    -12 -16  82 W9        30.50S WCI -30
FORT DODGE *   CLEAR    -13 -24  58 CALM      30.54R
MASON CITY     PTCLDY   -10 -15  78 NW10      30.50S WCI -29
FOREST CITY *  FAIR      -9 -17  70 W3        30.49S
WEBSTER CITY * CLEAR    -11 -17  77 W8        30.51S WCI -28
IOWA FALLS *   FAIR     -15 -21  77 W5        30.51S WCI -28
$$

IAZ007>011-017>019-026>030-037>042-050>054-066-270800-
   NORTHEAST IOWA

CITY           SKY/WX    TMP DP  RH WIND       PRES   REMARKS
CEDAR RAPIDS   CLEAR    -10 -15  78 NW9       30.51R WCI -27
CLINTON *      CLEAR    -15 -20  76 W3        30.51R
DECORAH *      CLEAR     -8 -15  71 NW5       30.46R WCI -19
DUBUQUE        FAIR      -3 -11  68 N7        30.45S WCI -16
MONTICELLO *   CLEAR    -13 -18  77 CALM      30.50S
OELWEIN *      PTCLDY   -15 -20  76 NW6       30.49S WCI -29
WATERLOO       PTCLDY   -11 -14  86 W5        30.52S WCI -23
$$

IAZ064-065-067-068-078-270800-
   EAST CENTRAL IOWA

CITY           SKY/WX    TMP DP  RH WIND       PRES   REMARKS
DAVENPORT      CLEAR    -13 -18  78 W8        30.51R WCI -30
IOWA CITY      CLEAR     -5 -11  75 NW9       30.55R WCI -22
MT. PLEASANT * CLEAR     -7 -12  78 W6        30.55R WCI -20
MUSCATINE *    CLEAR     -6 -11  77 W7        30.56R WCI -20
QUAD CITIES    CLEAR     -6 -12  75 W6        30.52R WCI -19
$$

IAZ062-063-075>077-085>089-095>099-270800-
   SOUTHEAST IOWA

CITY           SKY/WX    TMP DP  RH WIND       PRES   REMARKS
BURLINGTON     CLEAR     -5 -10  79 NW8       30.54R WCI -20
FAIRFIELD *    CLEAR     -6 -13  71 W8        30.55S WCI -21
FORT MADISON * CLEAR     -6  -9  84 W8        30.55R WCI -21
KEOKUK *       CLEAR     -2  -8  78 NW7       30.56R WCI -16
OSKALOOSA *    FAIR      -7 -12  79 NW8       30.56R WCI -23
CENTERVILLE *  FAIR      -4  -9  77 W7        30.57R WCI -18
OTTUMWA        CLEAR     -4 -10  75 NW7       30.55R WCI -18
WASHINGTON *   CLEAR     -8  -9  92 NW9       30.54S WCI -25
$$

ABBREVIATIONS USED IN REMARKS
   TC - TEMPERATURES IN CELSIUS
  WCI - WIND CHILL INDEX
   HX - HEAT INDEX
  VSB - VISIBILITY
$$


USA.gov is the U.S. government's official web portal to all federal, state and local government web resources and services.